Location: *
(47.6569°N, 7.4256°E)
Time: 12:43:59
(UTC+00:00)

Okean 1-7 - Pass Details

Date: 14 December 2019
Orbit: 590 x 619 km, 82.5° (Epoch: 26 January)

Event Time Altitude Azimuth Distance (km) Brightness Sun altitude
Rises 16:52:04 0° 176° (S) 2,856 6.7 -11.7°
Reaches altitude 10° 16:54:17 10° 173° (S) 1,961 5.8 -12.1°
Maximum altitude 16:58:33 57° 95° (E) 729 3.1 -12.7°
Drops below altitude 10° 17:02:52 10° 17° (NNE) 1,992 5.3 -13.4°
Enters shadow 17:03:53 - 15° (NNE) 2,396 5.7 -13.6°
